Terminal Aerodrome Forecast
Issued by NWS Austin/San Antonio, TX

Home | Current Version | Previous Version | Text Only | Print | Product List | Glossary On
Versions: 1 2 3 4 5 6 7 8 9 10 11 12 13 14 15 16 17
000
FTUS44 KEWX 021100
TAFDRT
TAF
KDRT 021120Z 0212/0312 11010KT P6SM BKN020
     FM021600 14012G19KT P6SM SCT040
     FM030200 12010KT P6SM FEW060=

USA.gov is the U.S. government's official web portal to all federal, state and local government web resources and services.